CES519 ZSSS-ZGHA

Flight info

Callsign CES519
Flight time 1h 29m
Altitude 27600
Route NXD W131 AKDIM A470 SAGNU W132 OREXA H165 DALEP
Aircraft A359/H-SDE2E3GHIJ3J4J5LM1ORWXY/LB1D1

Departure

Time 2026-05-07 07:33
Airport Shanghai Hongqiao International Airport (ZSSS)

Arrival

Time 2026-05-07 09:02
Airport Changsha Huanghua International Airport (ZGHA)
Time Latitude Longitude Altitude Speed Heading
2026-05-07 07:07 31.19669 121.32529 28 ft 0 kts 268°
2026-05-07 07:22 31.19669 121.32530 25 ft 1 kts 268°
2026-05-07 07:22 31.19669 121.32548 25 ft 3 kts 268°
2026-05-07 07:23 31.19669 121.32571 27 ft 3 kts 279°
2026-05-07 07:23 31.19663 121.32594 31 ft 3 kts 301°
2026-05-07 07:23 31.19651 121.32612 31 ft 3 kts 323°
2026-05-07 07:23 31.19633 121.32623 31 ft 3 kts 344°
2026-05-07 07:24 31.19621 121.32626 30 ft 0 kts 354°
2026-05-07 07:28 31.19626 121.32626 31 ft 2 kts 356°
2026-05-07 07:28 31.19664 121.32627 31 ft 8 kts
2026-05-07 07:29 31.19712 121.32681 30 ft 12 kts 74°
2026-05-07 07:29 31.19721 121.32802 26 ft 18 kts 86°
2026-05-07 07:29 31.19723 121.32940 30 ft 0 kts 105°
2026-05-07 07:29 31.19718 121.32956 27 ft 5 kts 114°
2026-05-07 07:30 31.19676 121.32979 28 ft 10 kts 173°
2026-05-07 07:30 31.19584 121.32985 28 ft 16 kts 176°
2026-05-07 07:30 31.19449 121.32992 27 ft 22 kts 178°
2026-05-07 07:30 31.19276 121.33001 28 ft 27 kts 177°
2026-05-07 07:31 31.19077 121.33011 28 ft 30 kts 177°
2026-05-07 07:31 31.18870 121.33021 28 ft 29 kts 177°
2026-05-07 07:31 31.18673 121.33032 28 ft 26 kts 177°
2026-05-07 07:31 31.18487 121.33044 28 ft 27 kts 177°
2026-05-07 07:32 31.18350 121.33070 29 ft 9 kts 130°
2026-05-07 07:32 31.18338 121.33153 25 ft 12 kts 90°
2026-05-07 07:32 31.18343 121.33267 30 ft 15 kts 78°
2026-05-07 07:32 31.18423 121.33322 29 ft 14 kts
2026-05-07 07:33 31.18595 121.33313 27 ft 55 kts 357°
2026-05-07 07:33 31.19233 121.33277 27 ft 127 kts 357°
2026-05-07 07:33 31.20303 121.33212 248 ft 166 kts 356°
2026-05-07 07:33 31.21407 121.33135 1194 ft 153 kts 355°
2026-05-07 07:34 31.22553 121.32858 1586 ft 186 kts 334°
2026-05-07 07:34 31.23510 121.31725 1951 ft 213 kts 299°
2026-05-07 07:34 31.24194 121.30113 2652 ft 226 kts 296°
2026-05-07 07:34 31.24897 121.28438 3445 ft 232 kts 298°
2026-05-07 07:35 31.25668 121.26802 4226 ft 228 kts 301°
2026-05-07 07:35 31.26485 121.25225 4736 ft 227 kts 302°
2026-05-07 07:35 31.27209 121.23609 4898 ft 229 kts 290°
2026-05-07 07:35 31.27363 121.21745 4945 ft 231 kts 261°
2026-05-07 07:36 31.26725 121.20030 5179 ft 242 kts 239°
2026-05-07 07:36 31.25733 121.18330 5632 ft 262 kts 241°
2026-05-07 07:36 31.24807 121.16468 6491 ft 268 kts 242°
2026-05-07 07:36 31.23887 121.14550 7451 ft 272 kts 243°
2026-05-07 07:37 31.22963 121.12614 8464 ft 275 kts 243°
2026-05-07 07:37 31.22030 121.10649 9506 ft 278 kts 243°
2026-05-07 07:37 31.21086 121.08662 10416 ft 284 kts 243°
2026-05-07 07:37 31.20095 121.06569 10920 ft 305 kts 243°
2026-05-07 07:38 31.19034 121.04331 11411 ft 323 kts 242°
2026-05-07 07:38 31.17930 121.02008 12197 ft 330 kts 242°
2026-05-07 07:38 31.16807 120.99650 13094 ft 333 kts 242°
2026-05-07 07:38 31.15679 120.97281 14000 ft 335 kts 242°
2026-05-07 07:39 31.14542 120.94894 14747 ft 338 kts 242°
2026-05-07 07:39 31.13390 120.92478 15451 ft 343 kts 243°
2026-05-07 07:39 31.12223 120.90031 16153 ft 347 kts 243°
2026-05-07 07:39 31.11043 120.87554 16879 ft 351 kts 243°
2026-05-07 07:40 31.09848 120.85049 17598 ft 355 kts 243°
2026-05-07 07:40 31.08651 120.82542 18288 ft 359 kts 243°
2026-05-07 07:40 31.07431 120.79990 18914 ft 362 kts 243°
2026-05-07 07:40 31.06202 120.77419 19577 ft 364 kts 243°
2026-05-07 07:41 31.05045 120.75002 20221 ft 366 kts 243°
2026-05-07 07:41 31.03802 120.72405 20889 ft 369 kts 243°
2026-05-07 07:41 31.02545 120.69782 21550 ft 371 kts 243°
2026-05-07 07:41 31.01278 120.67140 22216 ft 374 kts 243°
2026-05-07 07:42 31.00004 120.64483 22867 ft 377 kts 243°
2026-05-07 07:42 30.98718 120.61806 23520 ft 380 kts 243°
2026-05-07 07:42 30.97422 120.59107 24058 ft 383 kts 243°
2026-05-07 07:42 30.96112 120.56383 24601 ft 386 kts 243°
2026-05-07 07:43 30.94794 120.53644 25166 ft 389 kts 243°
2026-05-07 07:43 30.93465 120.50884 25732 ft 392 kts 243°
2026-05-07 07:43 30.92123 120.48098 26275 ft 396 kts 243°
2026-05-07 07:43 30.90727 120.45318 26810 ft 401 kts 240°
2026-05-07 07:44 30.88991 120.42749 27286 ft 409 kts 230°
2026-05-07 07:44 30.86874 120.40522 27480 ft 408 kts 223°
2026-05-07 07:44 30.84639 120.38550 27512 ft 405 kts 220°
2026-05-07 07:44 30.82308 120.36656 27513 ft 423 kts 219°
2026-05-07 07:45 30.79830 120.34694 27510 ft 439 kts 218°
2026-05-07 07:45 30.77257 120.32657 27510 ft 455 kts 218°
2026-05-07 07:45 30.74612 120.30540 27511 ft 468 kts 219°
2026-05-07 07:45 30.71923 120.28367 27508 ft 475 kts 219°
2026-05-07 07:46 30.69204 120.26154 27515 ft 478 kts 219°
2026-05-07 07:46 30.66480 120.23928 27512 ft 479 kts 219°
2026-05-07 07:46 30.63756 120.21698 27513 ft 479 kts 219°
2026-05-07 07:46 30.61031 120.19466 27512 ft 480 kts 219°
2026-05-07 07:47 30.58303 120.17232 27526 ft 480 kts 219°
2026-05-07 07:47 30.55574 120.14998 27512 ft 480 kts 219°
2026-05-07 07:47 30.52845 120.12766 27520 ft 481 kts 219°
2026-05-07 07:47 30.50110 120.10531 27525 ft 481 kts 219°
2026-05-07 07:48 30.47376 120.08298 27523 ft 481 kts 219°
2026-05-07 07:48 30.44630 120.06071 27508 ft 482 kts 218°
2026-05-07 07:48 30.41769 120.04020 27522 ft 484 kts 215°
2026-05-07 07:48 30.38866 120.02030 27522 ft 485 kts 214°
2026-05-07 07:49 30.35946 120.00070 27523 ft 486 kts 214°
2026-05-07 07:49 30.33011 119.98122 27525 ft 487 kts 214°
2026-05-07 07:49 30.30070 119.96176 27521 ft 487 kts 214°
2026-05-07 07:49 30.27128 119.94229 27526 ft 487 kts 214°
2026-05-07 07:50 30.24185 119.92280 27525 ft 488 kts 214°
2026-05-07 07:50 30.21238 119.90326 27531 ft 488 kts 214°
2026-05-07 07:50 30.18297 119.88378 27533 ft 488 kts 214°
2026-05-07 07:50 30.15352 119.86426 27529 ft 488 kts 214°
2026-05-07 07:51 30.12408 119.84472 27531 ft 488 kts 214°
2026-05-07 07:51 30.09462 119.82518 27535 ft 488 kts 214°
2026-05-07 07:51 30.06569 119.80481 27532 ft 485 kts 220°
2026-05-07 07:51 30.04074 119.77919 27540 ft 477 kts 232°
2026-05-07 07:52 30.01948 119.75007 27538 ft 474 kts 236°
2026-05-07 07:52 29.99981 119.71958 27540 ft 473 kts 238°
2026-05-07 07:52 29.98097 119.68849 27542 ft 472 kts 239°
2026-05-07 07:52 29.96278 119.65784 27539 ft 472 kts 239°
2026-05-07 07:53 29.94424 119.62667 27541 ft 471 kts 239°
2026-05-07 07:53 29.92559 119.59561 27541 ft 471 kts 239°
2026-05-07 07:53 29.90680 119.56467 27540 ft 471 kts 238°
2026-05-07 07:53 29.88789 119.53381 27539 ft 471 kts 238°
2026-05-07 07:54 29.86891 119.50299 27535 ft 471 kts 238°
2026-05-07 07:54 29.84991 119.47219 27545 ft 471 kts 238°
2026-05-07 07:54 29.83091 119.44146 27541 ft 471 kts 238°
2026-05-07 07:54 29.81187 119.41071 27537 ft 471 kts 238°
2026-05-07 07:55 29.79284 119.37999 27540 ft 471 kts 238°
2026-05-07 07:55 29.77408 119.34974 27531 ft 471 kts 238°
2026-05-07 07:55 29.75480 119.31866 27526 ft 471 kts 238°
2026-05-07 07:55 29.73577 119.28799 27531 ft 471 kts 238°
2026-05-07 07:56 29.71673 119.25732 27536 ft 471 kts 238°
2026-05-07 07:56 29.69770 119.22664 27534 ft 471 kts 238°
2026-05-07 07:56 29.67866 119.19598 27539 ft 471 kts 238°
2026-05-07 07:56 29.66100 119.16444 27533 ft 468 kts 245°
2026-05-07 07:57 29.64763 119.13104 27533 ft 465 kts 251°
2026-05-07 07:57 29.63591 119.09644 27538 ft 464 kts 252°
2026-05-07 07:57 29.62490 119.06157 27537 ft 464 kts 253°
2026-05-07 07:57 29.61425 119.02659 27539 ft 464 kts 253°
2026-05-07 07:58 29.60371 118.99157 27534 ft 464 kts 253°
2026-05-07 07:58 29.59314 118.95654 27536 ft 464 kts 253°
2026-05-07 07:58 29.58249 118.92151 27539 ft 464 kts 253°
2026-05-07 07:58 29.57179 118.88655 27543 ft 464 kts 253°
2026-05-07 07:59 29.56102 118.85161 27536 ft 464 kts 253°
2026-05-07 07:59 29.55024 118.81673 27536 ft 464 kts 253°
2026-05-07 07:59 29.53942 118.78179 27546 ft 464 kts 253°
2026-05-07 07:59 29.52860 118.74691 27547 ft 464 kts 253°
2026-05-07 08:00 29.52129 118.72337 27552 ft 464 kts 253°
2026-05-07 08:00 29.51043 118.68846 27547 ft 464 kts 252°
2026-05-07 08:00 29.49959 118.65362 27540 ft 464 kts 253°
2026-05-07 08:00 29.48874 118.61880 27537 ft 463 kts 253°
2026-05-07 08:01 29.47788 118.58395 27543 ft 463 kts 253°
2026-05-07 08:01 29.46702 118.54912 27542 ft 463 kts 252°
2026-05-07 08:01 29.45615 118.51433 27544 ft 464 kts 252°
2026-05-07 08:01 29.44522 118.47960 27543 ft 464 kts 252°
2026-05-07 08:02 29.43347 118.44510 27545 ft 464 kts 250°
2026-05-07 08:02 29.42114 118.41093 27545 ft 464 kts 250°
2026-05-07 08:02 29.40856 118.37675 27561 ft 465 kts 250°
2026-05-07 08:02 29.39600 118.34261 27552 ft 465 kts 250°
2026-05-07 08:03 29.38355 118.30850 27545 ft 464 kts 250°
2026-05-07 08:03 29.37117 118.27430 27539 ft 465 kts 250°
2026-05-07 08:03 29.35883 118.24002 27548 ft 465 kts 250°
2026-05-07 08:03 29.34668 118.20615 27548 ft 465 kts 250°
2026-05-07 08:04 29.33437 118.17183 27541 ft 466 kts 250°
2026-05-07 08:04 29.32207 118.13753 27543 ft 466 kts 250°
2026-05-07 08:04 29.30975 118.10319 27538 ft 466 kts 250°
2026-05-07 08:04 29.29738 118.06882 27538 ft 466 kts 250°
2026-05-07 08:05 29.28503 118.03450 27540 ft 466 kts 250°
2026-05-07 08:05 29.27267 118.00019 27550 ft 466 kts 250°
2026-05-07 08:05 29.26029 117.96587 27535 ft 465 kts 250°
2026-05-07 08:05 29.24794 117.93165 27536 ft 465 kts 250°
2026-05-07 08:06 29.23557 117.89744 27550 ft 465 kts 250°
2026-05-07 08:06 29.22322 117.86331 27549 ft 465 kts 250°
2026-05-07 08:06 29.21084 117.82913 27528 ft 465 kts 250°
2026-05-07 08:06 29.19846 117.79497 27544 ft 464 kts 250°
2026-05-07 08:07 29.18608 117.76086 27527 ft 464 kts 250°
2026-05-07 08:07 29.17368 117.72674 27542 ft 464 kts 250°
2026-05-07 08:07 29.16129 117.69267 27543 ft 464 kts 250°
2026-05-07 08:07 29.14890 117.65860 27543 ft 464 kts 250°
2026-05-07 08:08 29.13651 117.62455 27542 ft 464 kts 250°
2026-05-07 08:08 29.12410 117.59053 27537 ft 464 kts 250°
2026-05-07 08:08 29.11167 117.55648 27536 ft 464 kts 250°
2026-05-07 08:08 29.09926 117.52246 27540 ft 463 kts 250°
2026-05-07 08:09 29.08683 117.48849 27536 ft 463 kts 250°
2026-05-07 08:09 29.07446 117.45456 27540 ft 463 kts 250°
2026-05-07 08:09 29.06208 117.42054 27538 ft 463 kts 250°
2026-05-07 08:09 29.04987 117.38660 27539 ft 462 kts 250°
2026-05-07 08:10 29.03829 117.35229 27538 ft 462 kts 251°
2026-05-07 08:10 29.02714 117.31789 27537 ft 461 kts 252°
2026-05-07 08:10 29.01612 117.28353 27537 ft 461 kts 252°
2026-05-07 08:10 29.00498 117.24916 27538 ft 461 kts 251°
2026-05-07 08:11 28.99326 117.21503 27541 ft 461 kts 250°
2026-05-07 08:11 28.98114 117.18115 27538 ft 461 kts 250°
2026-05-07 08:11 28.96884 117.14732 27539 ft 461 kts 250°
2026-05-07 08:11 28.95653 117.11355 27538 ft 461 kts 250°
2026-05-07 08:12 28.94425 117.07972 27540 ft 460 kts 250°
2026-05-07 08:12 28.93219 117.04639 27540 ft 460 kts 250°
2026-05-07 08:12 28.92002 117.01262 27533 ft 461 kts 250°
2026-05-07 08:12 28.90785 116.97879 27538 ft 461 kts 250°
2026-05-07 08:13 28.89568 116.94494 27537 ft 461 kts 250°
2026-05-07 08:13 28.88352 116.91114 27539 ft 461 kts 250°
2026-05-07 08:13 28.87135 116.87732 27540 ft 460 kts 250°
2026-05-07 08:13 28.85918 116.84356 27536 ft 460 kts 250°
2026-05-07 08:14 28.84701 116.80984 27535 ft 460 kts 250°
2026-05-07 08:14 28.83483 116.77615 27543 ft 460 kts 250°
2026-05-07 08:14 28.82260 116.74240 27534 ft 460 kts 250°
2026-05-07 08:14 28.81039 116.70870 27532 ft 460 kts 250°
2026-05-07 08:15 28.79818 116.67501 27531 ft 460 kts 250°
2026-05-07 08:15 28.78600 116.64140 27536 ft 460 kts 250°
2026-05-07 08:15 28.77375 116.60762 27534 ft 459 kts 250°
2026-05-07 08:15 28.76155 116.57401 27535 ft 460 kts 250°
2026-05-07 08:16 28.74931 116.54035 27532 ft 460 kts 250°
2026-05-07 08:16 28.73707 116.50670 27538 ft 460 kts 250°
2026-05-07 08:16 28.72481 116.47304 27530 ft 460 kts 250°
2026-05-07 08:16 28.71254 116.43937 27529 ft 461 kts 250°
2026-05-07 08:17 28.70024 116.40565 27531 ft 461 kts 250°
2026-05-07 08:17 28.68793 116.37197 27531 ft 460 kts 250°
2026-05-07 08:17 28.67563 116.33833 27532 ft 460 kts 250°
2026-05-07 08:17 28.66331 116.30468 27531 ft 460 kts 250°
2026-05-07 08:18 28.65097 116.27100 27536 ft 460 kts 249°
2026-05-07 08:18 28.63865 116.23737 27533 ft 461 kts 250°
2026-05-07 08:18 28.62631 116.20372 27529 ft 461 kts 249°
2026-05-07 08:18 28.61397 116.17014 27529 ft 461 kts 249°
2026-05-07 08:19 28.60160 116.13649 27531 ft 460 kts 249°
2026-05-07 08:19 28.58923 116.10290 27529 ft 460 kts 249°
2026-05-07 08:19 28.57684 116.06929 27531 ft 461 kts 249°
2026-05-07 08:19 28.56463 116.03617 27531 ft 461 kts 249°
2026-05-07 08:20 28.55223 116.00256 27530 ft 461 kts 249°
2026-05-07 08:20 28.53980 115.96889 27530 ft 461 kts 249°
2026-05-07 08:20 28.52902 115.93463 27530 ft 460 kts 256°
2026-05-07 08:20 28.52211 115.89916 27529 ft 460 kts 260°
2026-05-07 08:21 28.51651 115.86334 27530 ft 460 kts 261°
2026-05-07 08:21 28.51158 115.82745 27527 ft 460 kts 262°
2026-05-07 08:21 28.50692 115.79150 27526 ft 460 kts 262°
2026-05-07 08:21 28.50232 115.75550 27528 ft 460 kts 262°
2026-05-07 08:22 28.49765 115.71948 27525 ft 460 kts 262°
2026-05-07 08:22 28.49291 115.68353 27530 ft 460 kts 262°
2026-05-07 08:22 28.48808 115.64753 27531 ft 460 kts 262°
2026-05-07 08:22 28.48322 115.61157 27530 ft 461 kts 262°
2026-05-07 08:23 28.47829 115.57559 27528 ft 461 kts 262°
2026-05-07 08:23 28.47329 115.53961 27530 ft 461 kts 262°
2026-05-07 08:23 28.46826 115.50361 27527 ft 461 kts 262°
2026-05-07 08:23 28.46323 115.46765 27535 ft 461 kts 262°
2026-05-07 08:24 28.45820 115.43174 27532 ft 461 kts 262°
2026-05-07 08:24 28.45317 115.39576 27528 ft 460 kts 262°
2026-05-07 08:24 28.44817 115.35982 27522 ft 461 kts 262°
2026-05-07 08:24 28.44310 115.32382 27524 ft 461 kts 262°
2026-05-07 08:25 28.43801 115.28776 27527 ft 462 kts 262°
2026-05-07 08:25 28.43291 115.25172 27529 ft 463 kts 262°
2026-05-07 08:25 28.42780 115.21560 27529 ft 463 kts 262°
2026-05-07 08:25 28.42269 115.17944 27529 ft 464 kts 262°
2026-05-07 08:26 28.41241 115.10709 27531 ft 465 kts 262°
2026-05-07 08:26 28.40724 115.07084 27529 ft 465 kts 262°
2026-05-07 08:26 28.40207 115.03461 27534 ft 465 kts 262°
2026-05-07 08:27 28.39687 114.99834 27523 ft 465 kts 262°
2026-05-07 08:27 28.39168 114.96209 27518 ft 465 kts 262°
2026-05-07 08:27 28.38647 114.92579 27518 ft 466 kts 262°
2026-05-07 08:27 28.38124 114.88944 27521 ft 466 kts 262°
2026-05-07 08:28 28.37601 114.85312 27523 ft 466 kts 262°
2026-05-07 08:28 28.37076 114.81672 27523 ft 467 kts 261°
2026-05-07 08:28 28.36549 114.78033 27521 ft 467 kts 261°
2026-05-07 08:28 28.36029 114.74440 27522 ft 468 kts 261°
2026-05-07 08:29 28.35493 114.70752 27522 ft 468 kts 261°
2026-05-07 08:29 28.34963 114.67109 27522 ft 468 kts 261°
2026-05-07 08:29 28.34438 114.63508 27525 ft 469 kts 261°
2026-05-07 08:29 28.33905 114.59857 27525 ft 469 kts 261°
2026-05-07 08:30 28.33370 114.56204 27524 ft 469 kts 261°
2026-05-07 08:30 28.32834 114.52553 27527 ft 470 kts 261°
2026-05-07 08:30 28.32296 114.48891 27524 ft 470 kts 261°
2026-05-07 08:30 28.31762 114.45263 27330 ft 460 kts 261°
2026-05-07 08:31 28.31242 114.41740 26997 ft 447 kts 261°
2026-05-07 08:31 28.30758 114.38270 26301 ft 443 kts 263°
2026-05-07 08:31 28.30644 114.34802 25668 ft 438 kts 271°
2026-05-07 08:31 28.30741 114.31367 25064 ft 433 kts 272°
2026-05-07 08:32 28.30860 114.27967 24441 ft 430 kts 272°
2026-05-07 08:32 28.30974 114.24592 23820 ft 426 kts 272°
2026-05-07 08:32 28.31082 114.21248 23146 ft 422 kts 271°
2026-05-07 08:32 28.31187 114.17931 22483 ft 418 kts 271°
2026-05-07 08:33 28.31288 114.14645 21855 ft 416 kts 271°
2026-05-07 08:33 28.31388 114.11365 21208 ft 414 kts 271°
2026-05-07 08:33 28.31478 114.08114 20575 ft 410 kts 270°
2026-05-07 08:33 28.31240 114.04910 19952 ft 407 kts 259°
2026-05-07 08:34 28.30627 114.01789 19315 ft 404 kts 256°
2026-05-07 08:34 28.29959 113.98711 18690 ft 401 kts 256°
2026-05-07 08:34 28.29294 113.95647 18020 ft 399 kts 256°
2026-05-07 08:34 28.28636 113.92598 17345 ft 398 kts 256°
2026-05-07 08:35 28.27984 113.89563 16690 ft 395 kts 256°
2026-05-07 08:35 28.27338 113.86552 16065 ft 390 kts 256°
2026-05-07 08:35 28.26701 113.83580 15433 ft 386 kts 256°
2026-05-07 08:35 28.26071 113.80640 14826 ft 382 kts 256°
2026-05-07 08:36 28.25432 113.77727 14210 ft 379 kts 255°
2026-05-07 08:36 28.24402 113.74994 13575 ft 376 kts 237°
2026-05-07 08:36 28.22623 113.72858 12924 ft 374 kts 217°
2026-05-07 08:36 28.20346 113.71629 12315 ft 372 kts 196°
2026-05-07 08:37 28.17822 113.71268 11677 ft 370 kts 184°
2026-05-07 08:37 28.15270 113.71132 11127 ft 365 kts 184°
2026-05-07 08:37 28.12773 113.70991 10853 ft 351 kts 185°
2026-05-07 08:37 28.10386 113.70832 10723 ft 335 kts 186°
2026-05-07 08:38 28.08118 113.70636 10598 ft 319 kts 186°
2026-05-07 08:38 28.05953 113.70438 10476 ft 305 kts 187°
2026-05-07 08:38 28.03931 113.70006 10318 ft 289 kts 202°
2026-05-07 08:38 28.02264 113.68824 10023 ft 282 kts 226°
2026-05-07 08:39 28.01221 113.66986 9675 ft 280 kts 250°
2026-05-07 08:39 28.00868 113.64823 9350 ft 280 kts 266°
2026-05-07 08:39 28.00777 113.62612 9017 ft 281 kts 267°
2026-05-07 08:39 28.00703 113.60407 8709 ft 280 kts 267°
2026-05-07 08:40 28.00619 113.58203 8389 ft 280 kts 267°
2026-05-07 08:40 28.00526 113.56004 8024 ft 279 kts 266°
2026-05-07 08:40 28.00428 113.53819 7654 ft 278 kts 267°
2026-05-07 08:40 28.00255 113.51651 7297 ft 276 kts 259°
2026-05-07 08:41 27.99689 113.49585 6947 ft 275 kts 249°
2026-05-07 08:41 27.98973 113.47581 6587 ft 275 kts 248°
2026-05-07 08:41 27.98246 113.45588 6319 ft 270 kts 248°
2026-05-07 08:41 27.97548 113.43667 6183 ft 259 kts 248°
2026-05-07 08:42 27.96879 113.41814 6051 ft 249 kts 249°
2026-05-07 08:42 27.96238 113.40035 5916 ft 240 kts 249°
2026-05-07 08:42 27.95623 113.38320 5791 ft 232 kts 249°
2026-05-07 08:42 27.95061 113.36633 5539 ft 228 kts 256°
2026-05-07 08:43 27.94948 113.34867 5300 ft 225 kts 284°
2026-05-07 08:43 27.95625 113.33329 5091 ft 218 kts 315°
2026-05-07 08:43 27.96728 113.32205 4881 ft 216 kts 324°
2026-05-07 08:43 27.97934 113.31156 4665 ft 215 kts 326°
2026-05-07 08:44 27.99106 113.30153 4422 ft 213 kts 326°
2026-05-07 08:44 28.00284 113.29141 4143 ft 212 kts 326°
2026-05-07 08:44 28.01451 113.28135 3865 ft 211 kts 326°
2026-05-07 08:44 28.02617 113.27130 3595 ft 210 kts 326°
2026-05-07 08:45 28.03760 113.26139 3346 ft 209 kts 326°
2026-05-07 08:45 28.04940 113.25233 3087 ft 198 kts 341°
2026-05-07 08:45 28.06225 113.25061 2878 ft 178 kts
2026-05-07 08:45 28.07420 113.25119 2643 ft 164 kts
2026-05-07 08:46 28.08505 113.25068 2430 ft 148 kts 355°
2026-05-07 08:46 28.09478 113.24986 2191 ft 134 kts 357°
2026-05-07 08:46 28.10386 113.24933 1836 ft 129 kts 358°
2026-05-07 08:46 28.11290 113.24882 1385 ft 130 kts 356°
2026-05-07 08:47 28.12164 113.24828 1168 ft 124 kts 354°
2026-05-07 08:47 28.12752 113.24788 1041 ft 125 kts 356°
2026-05-07 08:47 28.13596 113.24737 857 ft 121 kts 357°
2026-05-07 08:47 28.13880 113.24720 810 ft 120 kts 357°
2026-05-07 08:48 28.14547 113.24679 670 ft 116 kts 356°
2026-05-07 08:48 28.15361 113.24627 510 ft 120 kts 358°
2026-05-07 08:48 28.16206 113.24576 336 ft 122 kts 358°
2026-05-07 08:48 28.17041 113.24525 297 ft 118 kts 357°
2026-05-07 08:49 28.17900 113.24471 389 ft 137 kts 357°
2026-05-07 08:49 28.18886 113.24411 732 ft 155 kts 358°
2026-05-07 08:49 28.20042 113.24344 1682 ft 182 kts 356°
2026-05-07 08:49 28.21038 113.24283 1993 ft 198 kts 357°
2026-05-07 08:50 28.22506 113.24193 2325 ft 222 kts 358°
2026-05-07 08:50 28.24045 113.24312 3036 ft 217 kts 18°
2026-05-07 08:50 28.25149 113.25297 3624 ft 202 kts 58°
2026-05-07 08:50 28.25399 113.26862 3867 ft 212 kts 96°
2026-05-07 08:51 28.24653 113.28316 3897 ft 223 kts 137°
2026-05-07 08:51 28.23218 113.29054 3903 ft 232 kts 161°
2026-05-07 08:51 28.21665 113.29569 3894 ft 233 kts 159°
2026-05-07 08:51 28.20145 113.30200 3892 ft 232 kts 154°
2026-05-07 08:52 28.18670 113.30931 3892 ft 231 kts 152°
2026-05-07 08:52 28.17226 113.31721 3889 ft 229 kts 150°
2026-05-07 08:52 28.15805 113.32540 3892 ft 229 kts 149°
2026-05-07 08:52 28.14387 113.33380 3887 ft 230 kts 149°
2026-05-07 08:53 28.12974 113.34232 3890 ft 230 kts 149°
2026-05-07 08:53 28.11559 113.35073 3886 ft 230 kts 151°
2026-05-07 08:53 28.09975 113.35504 3897 ft 246 kts 173°
2026-05-07 08:53 28.08158 113.35636 3871 ft 273 kts 176°
2026-05-07 08:54 28.06225 113.35726 3874 ft 281 kts 176°
2026-05-07 08:54 28.04270 113.35822 3878 ft 281 kts 176°
2026-05-07 08:54 28.02318 113.35928 3879 ft 281 kts 176°
2026-05-07 08:54 28.00364 113.36039 3875 ft 281 kts 176°
2026-05-07 08:55 27.98437 113.36151 3876 ft 281 kts 176°
2026-05-07 08:55 27.96483 113.36242 3871 ft 281 kts 180°
2026-05-07 08:55 27.94621 113.35613 3836 ft 281 kts 213°
2026-05-07 08:55 27.93331 113.34013 3711 ft 276 kts 246°
2026-05-07 08:56 27.92999 113.31941 3581 ft 267 kts 280°
2026-05-07 08:56 27.93451 113.29922 3476 ft 264 kts 292°
2026-05-07 08:56 27.94357 113.28151 3098 ft 258 kts 317°
2026-05-07 08:56 27.95673 113.26853 2923 ft 245 kts 325°
2026-05-07 08:57 27.96995 113.25716 2807 ft 233 kts 326°
2026-05-07 08:57 27.98264 113.24644 2672 ft 222 kts 326°
2026-05-07 08:57 27.99531 113.23758 2516 ft 208 kts 340°
2026-05-07 08:57 28.00901 113.23437 2405 ft 196 kts 357°
2026-05-07 08:58 28.02231 113.23392 2314 ft 187 kts 358°
2026-05-07 08:58 28.03491 113.23328 2277 ft 173 kts 356°
2026-05-07 08:58 28.04658 113.23251 2303 ft 166 kts 356°
2026-05-07 08:58 28.05797 113.23173 2318 ft 164 kts 356°
2026-05-07 08:59 28.06916 113.23099 2262 ft 154 kts 356°
2026-05-07 08:59 28.07959 113.23034 2080 ft 148 kts 357°
2026-05-07 08:59 28.08979 113.22974 1886 ft 146 kts 357°
2026-05-07 08:59 28.09988 113.22912 1701 ft 144 kts 356°
2026-05-07 09:00 28.10956 113.22852 1495 ft 135 kts 356°
2026-05-07 09:00 28.11855 113.22797 1324 ft 124 kts 356°
2026-05-07 09:00 28.12676 113.22747 1167 ft 113 kts 356°
2026-05-07 09:00 28.13468 113.22699 1020 ft 116 kts 356°
2026-05-07 09:01 28.14268 113.22651 851 ft 117 kts 355°
2026-05-07 09:01 28.15078 113.22598 667 ft 117 kts 355°
2026-05-07 09:01 28.15895 113.22541 550 ft 119 kts 356°
2026-05-07 09:01 28.16714 113.22496 400 ft 119 kts 357°
2026-05-07 09:02 28.17543 113.22448 250 ft 120 kts 357°
2026-05-07 09:02 28.18331 113.22404 224 ft 99 kts 357°
2026-05-07 09:02 28.18891 113.22370 228 ft 62 kts 356°
2026-05-07 09:02 28.19198 113.22349 225 ft 28 kts 356°
2026-05-07 09:03 28.19391 113.22335 224 ft 28 kts 353°
2026-05-07 09:03 28.19574 113.22260 226 ft 29 kts 330°
2026-05-07 09:03 28.19753 113.22143 229 ft 30 kts 330°
2026-05-07 09:03 28.19959 113.22109 223 ft 31 kts 357°
2026-05-07 09:04 28.20075 113.22028 223 ft 19 kts 272°
2026-05-07 09:04 28.20069 113.21870 221 ft 22 kts 267°
2026-05-07 09:04 28.20042 113.21734 226 ft 12 kts 217°
2026-05-07 09:04 28.19950 113.21723 223 ft 15 kts 175°
2026-05-07 09:05 28.19832 113.21731 220 ft 19 kts 176°
2026-05-07 09:05 28.19692 113.21740 225 ft 22 kts 176°
2026-05-07 09:05 28.19529 113.21751 222 ft 25 kts 176°
2026-05-07 09:05 28.19346 113.21763 222 ft 28 kts 176°
2026-05-07 09:06 28.19143 113.21775 223 ft 31 kts 176°
2026-05-07 09:06 28.18942 113.21787 223 ft 13 kts 180°
2026-05-07 09:06 28.18890 113.21737 225 ft 12 kts 252°
2026-05-07 09:06 28.18825 113.21685 222 ft 14 kts 184°
2026-05-07 09:07 28.18746 113.21646 225 ft 13 kts 249°
2026-05-07 09:07 28.18743 113.21620 224 ft 0 kts 266°
2026-05-07 09:07 28.18743 113.21617 223 ft 1 kts 266°
2026-05-07 09:07 28.18743 113.21614 220 ft 0 kts 266°